Location: Casco Millpond
(44.5581°N, 87.6111°W)
Time: 22:18:59
(UTC+00:00)

YAOGAN 1 - Pass Details

Date: 16 January 2026
Orbit: 605 x 607 km, 97.8° (Epoch: 10 February)

Event Time Altitude Azimuth Distance (km) Brightness Sun altitude
Rises 23:07:46 0° 127° (SE) 2,855 5.7 -5.6°
Reaches altitude 10° 23:10:25 10° 110° (ESE) 1,956 4.7 -6.0°
Maximum altitude 23:13:26 19° 64° (ENE) 1,451 3.8 -6.5°
Drops below altitude 10° 23:16:28 10° 19° (NNE) 1,966 4.8 -7.0°
Sets 23:19:08 0° 2° (N) 2,874 5.7 -7.5°
